QPF
0.02 0.03 0.02 0.02 0.02 0.02 0.03 0.02 0.02 0.03 0.05 0.06 0.05 0.05 0.03 0.02 0.01 0.03 0.04 0.04 0.03 0.03 0.03 0.03 0.02 0.02 0.02 0.03 0.04 0.05 0.05 0.05 0.05 0.05 0.05 0.04 0.04 0.04 0.04 0.03 0.02 0.02 0.01 0.01
0.02 0.02 0.02 0.02 0.02 0.02 0.03 0.03 0.02 0.02 0.03 0.04 0.04 0.03 0.02 0.01 0.01 0.02 0.03 0.04 0.04 0.05 0.05 0.03 0.02 0.02 0.02 0.02 0.04 0.04 0.05 0.05 0.05 0.04 0.04 0.04 0.03 0.03 0.02 0.02 0.02 0.01 0.01 0.01
0.02 0.01 0.03 0.03 0.03 0.03 0.03 0.04 0.03 0.03 0.03 0.02 0.02 0.02 0.01 0.00 0.00 0.02 0.04 0.04 0.04 0.04 0.04 0.03 0.02 0.02 0.02 0.03 0.03 0.04 0.04 0.04 0.04 0.05 0.05 0.04 0.03 0.03 0.03 0.03 0.02 0.02 0.01 0.01
0.04 0.05 0.06 0.04 0.04 0.05 0.05 0.04 0.02 0.01 0.01 0.01 0.01 0.01 0.01 0.01 0.01 0.01 0.02 0.02 0.03 0.03 0.03 0.02 0.02 0.02 0.02 0.02 0.03 0.03 0.03 0.03 0.04 0.05 0.06 0.05 0.04 0.04 0.04 0.03 0.02 0.01 0.01 0.00
0.08 0.09 0.08 0.05 0.04 0.04 0.03 0.04 0.02 0.01 0.01 0.01 0.01 0.01 0.02 0.01 0.01 0.01 0.01 0.01 0.02 0.02 0.02 0.02 0.02 0.02 0.02 0.02 0.02 0.03 0.03 0.03 0.04 0.05 0.06 0.05 0.05 0.04 0.03 0.02 0.02 0.01 0.01 0.01
0.10 0.10 0.12 0.09 0.04 0.02 0.03 0.04 0.04 0.02 0.01 0.01 0.00 0.01 0.01 0.01 0.01 0.01 0.01 0.01 0.01 0.02 0.02 0.02 0.02 0.02 0.01 0.02 0.02 0.02 0.03 0.03 0.04 0.04 0.04 0.03 0.03 0.03 0.02 0.02 0.02 0.01 0.01 0.01
0.11 0.09 0.09 0.07 0.03 0.03 0.04 0.05 0.05 0.03 0.01 0.01 0.01 0.00 0.00 0.00 0.01 0.01 0.02 0.02 0.01 0.01 0.01 0.01 0.01 0.01 0.02 0.02 0.03 0.03 0.03 0.03 0.03 0.03 0.03 0.02 0.02 0.02 0.02 0.02 0.01 0.01 0.01 0.01
0.10 0.10 0.08 0.04 0.03 0.04 0.04 0.02 0.02 0.02 0.01 0.01 0.01 0.02 0.01 0.01 0.01 0.01 0.01 0.02 0.02 0.01 0.02 0.01 0.01 0.01 0.01 0.02 0.02 0.03 0.03 0.03 0.03 0.03 0.02 0.02 0.02 0.02 0.01 0.01 0.01 0.01 0.01 0.00
0.11 0.10 0.07 0.04 0.03 0.03 0.02 0.01 0.01 0.01 0.01 0.01 0.01 0.02 0.01 0.01 0.01 0.01 0.01 0.01 0.02 0.02 0.02 0.02 0.01 0.02 0.02 0.02 0.02 0.03 0.03 0.03 0.03 0.03 0.02 0.01 0.01 0.01 0.01 0.01 0.01 0.00 0.01 0.00
0.13 0.10 0.07 0.05 0.03 0.02 0.02 0.01 0.01 0.00 0.00 0.00 0.01 0.01 0.01 0.00 0.01 0.01 0.01 0.01 0.02 0.01 0.01 0.02 0.02 0.02 0.02 0.02 0.03 0.03 0.02 0.01 0.01 0.01 0.01 0.01 0.01 0.00 0.00 0.00 0.00 0.00 0.00 0.00
0.11 0.10 0.07 0.05 0.04 0.02 0.01 0.01 0.01 0.00 0.00 0.00 0.01 0.01 0.01 0.00 0.01 0.01 0.01 0.01 0.01 0.01 0.01 0.01 0.02 0.03 0.02 0.02 0.02 0.02 0.01 0.01 0.01 0.01 0.01 0.00 0.00 0.00 0.00 0.00 0.00 0.00 0.00 0.00
0.10 0.10 0.11 0.08 0.04 0.03 0.01 0.01 0.01 0.00 0.00 0.01 0.01 0.01 0.00 0.01 0.01 0.01 0.01 0.01 0.01 0.01 0.01 0.01 0.01 0.01 0.01 0.01 0.01 0.01 0.01 0.01 0.01 0.00 0.00 0.00 0.00 0.00 0.00 0.00 0.00 0.00 0.00 0.00
0.11 0.09 0.08 0.08 0.05 0.02 0.01 0.01 0.01 0.00 0.00 0.01 0.01 0.01 0.00 0.00 0.00 0.01 0.01 0.01 0.01 0.01 0.01 0.01 0.01 0.01 0.00 0.00 0.01 0.01 0.01 0.01 0.01 0.00 0.00 0.00 0.00 0.00 0.00 0.00 0.00 0.00 0.00 0.00
0.11 0.10 0.07 0.05 0.03 0.02 0.01 0.01 0.01 0.01 0.01 0.01 0.01 0.01 0.00 0.00 0.00 0.00 0.01 0.01 0.01 0.01 0.01 0.00 0.01 0.01 0.00 0.00 0.00 0.00 0.00 0.00 0.00 0.00 0.00 0.00 0.00 0.00 0.00 0.00 0.00 0.00 0.00 0.00
0.07 0.09 0.09 0.04 0.02 0.02 0.01 0.01 0.01 0.01 0.00 0.01 0.01 0.01 0.01 0.00 0.00 0.01 0.01 0.01 0.01 0.01 0.00 0.00 0.00 0.00 0.00 0.00 0.00 0.01 0.00 0.00 0.00 0.00 0.00 0.00 0.00 0.00 0.00 0.00 0.00 0.00 0.00 0.00
0.05 0.07 0.07 0.04 0.02 0.02 0.01 0.01 0.00 0.00 0.00 0.00 0.01 0.01 0.00 0.00 0.00 0.01 0.01 0.01 0.01 0.01 0.00 0.00 0.00 0.00 0.00 0.00 0.00 0.00 0.00 0.00 0.00 0.00 0.00 0.00 0.00 0.00 0.00 0.00 0.00 0.00 0.00 0.00
0.06 0.04 0.04 0.03 0.02 0.02 0.01 0.01 0.00 0.00 0.00 0.00 0.00 0.00 0.00 0.00 0.00 0.01 0.01 0.01 0.00 0.00 0.00 0.00 0.00 0.00 0.00 0.00 0.00 0.00 0.00 0.00 0.00 0.00 0.00 0.00 0.00 0.00 0.00 0.00 0.00 0.00 0.00 0.00
0.08 0.05 0.03 0.03 0.03 0.02 0.01 0.01 0.00 0.00 0.00 0.00 0.00 0.00 0.00 0.00 0.00 0.00 0.00 0.00 0.00 0.00 0.00 0.00 0.00 0.00 0.00 0.00 0.00 0.00 0.00 0.00 0.00 0.00 0.00 0.00 0.00 0.00 0.00 0.00 0.00 0.00 0.00 0.00
0.08 0.07 0.03 0.03 0.03 0.02 0.01 0.00 0.00 0.00 0.00 0.00 0.00 0.00 0.00 0.00 0.00 0.00 0.00 0.00 0.00 0.00 0.00 0.00 0.00 0.00 0.00 0.00 0.00 0.00 0.00 0.00 0.00 0.00 0.00 0.00 0.00 0.00 0.00 0.00 0.00 0.00 0.00 0.00
0.06 0.06 0.03 0.03 0.02 0.01 0.01 0.00 0.00 0.00 0.00 0.00 0.00 0.00 0.00 0.00 0.00 0.00 0.00 0.00 0.00 0.00 0.00 0.00 0.00 0.00 0.00 0.00 0.00 0.00 0.00 0.00 0.00 0.00 0.00 0.00 0.00 0.00 0.00 0.00 0.00 0.00 0.00 0.00
0.04 0.05 0.02 0.01 0.01 0.01 0.00 0.00 0.00 0.00 0.00 0.00 0.00 0.00 0.00 0.00 0.00 0.00 0.00 0.00 0.00 0.00 0.00 0.00 0.00 0.00 0.00 0.00 0.00 0.00 0.00 0.00 0.00 0.00 0.00 0.00 0.00 0.00 0.00 0.00 0.00 0.00 0.00 0.00
0.03 0.04 0.03 0.01 0.01 0.01 0.00 0.00 0.00 0.00 0.00 0.00 0.00 0.00 0.00 0.00 0.00 0.00 0.00 0.00 0.00 0.00 0.00 0.00 0.00 0.00 0.00 0.00 0.00 0.00 0.00 0.00 0.00 0.00 0.00 0.00 0.00 0.00 0.00 0.00 0.00 0.00 0.00 0.00
0.01 0.02 0.02 0.01 0.00 0.00 0.00 0.00 0.00 0.00 0.00 0.00 0.00 0.00 0.00 0.00 0.00 0.00 0.00 0.00 0.00 0.00 0.00 0.00 0.00 0.00 0.00 0.00 0.00 0.00 0.00 0.00 0.00 0.00 0.00 0.00 0.00 0.00 0.00 0.00 0.00 0.00 0.00 0.00
0.02 0.02 0.01 0.00 0.00 0.00 0.00 0.00 0.00 0.00 0.00 0.00 0.00 0.00 0.00 0.00 0.00 0.00 0.00 0.00 0.00 0.00 0.00 0.00 0.00 0.00 0.00 0.00 0.00 0.00 0.00 0.00 0.00 0.00 0.00 0.00 0.00 0.00 0.00 0.00 0.00 0.00 0.00 0.00
0.03 0.02 0.01 0.00 0.00 0.00 0.00 0.00 0.00 0.00 0.00 0.00 0.00 0.00 0.00 0.00 0.00 0.00 0.00 0.00 0.00 0.00 0.00 0.00 0.00 0.00 0.00 0.00 0.00 0.00 0.00 0.00 0.00 0.00 0.00 0.00 0.00 0.00 0.00 0.00 0.00 0.00 0.00 0.00
0.02 0.01 0.01 0.00 0.00 0.00 0.00 0.00 0.00 0.00 0.00 0.00 0.00 0.00 0.00 0.00 0.00 0.00 0.00 0.00 0.00 0.00 0.00 0.00 0.00 0.00 0.00 0.00 0.00 0.00 0.00 0.00 0.00 0.00 0.00 0.00 0.00 0.00 0.00 0.00 0.00 0.00 0.00 0.00
0.02 0.01 0.01 0.01 0.00 0.00 0.00 0.00 0.00 0.00 0.00 0.00 0.00 0.00 0.00 0.00 0.00 0.00 0.00 0.00 0.00 0.00 0.00 0.00 0.00 0.00 0.00 0.00 0.00 0.00 0.00 0.00 0.00 0.00 0.00 0.00 0.00 0.00 0.00 0.00 0.00 0.00 0.00 0.00
MSLP
1013.18 1012.96 1012.78 1012.68 1012.64 1012.67 1012.76 1012.88 1013.03 1013.21 1013.42 1013.67 1013.96 1014.32 1014.75 1015.25 1015.83 1016.47 1017.14 1017.84 1018.53 1019.18 1019.77 1020.28 1020.71 1021.03 1021.26 1021.38 1021.41 1021.37 1021.28 1021.15 1021.00 1020.85 1020.73 1020.64 1020.59 1020.57 1020.59 1020.63 1020.68 1020.75 1020.81 1020.89
1013.19 1012.89 1012.60 1012.34 1012.13 1012.01 1011.97 1012.03 1012.18 1012.43 1012.77 1013.20 1013.70 1014.26 1014.88 1015.53 1016.20 1016.89 1017.56 1018.22 1018.85 1019.44 1019.97 1020.44 1020.85 1021.17 1021.41 1021.56 1021.64 1021.63 1021.57 1021.47 1021.36 1021.25 1021.16 1021.11 1021.11 1021.15 1021.21 1021.30 1021.39 1021.48 1021.56 1021.62
1013.15 1012.80 1012.43 1012.08 1011.78 1011.57 1011.47 1011.51 1011.69 1012.02 1012.48 1013.06 1013.72 1014.44 1015.19 1015.94 1016.66 1017.35 1017.99 1018.59 1019.15 1019.65 1020.12 1020.54 1020.91 1021.22 1021.47 1021.64 1021.73 1021.76 1021.73 1021.67 1021.59 1021.51 1021.47 1021.47 1021.53 1021.63 1021.76 1021.91 1022.05 1022.18 1022.27 1022.34
1013.08 1012.72 1012.32 1011.93 1011.60 1011.36 1011.27 1011.33 1011.57 1011.99 1012.55 1013.24 1014.02 1014.84 1015.66 1016.44 1017.17 1017.83 1018.42 1018.94 1019.41 1019.84 1020.23 1020.60 1020.93 1021.23 1021.47 1021.65 1021.76 1021.81 1021.80 1021.77 1021.72 1021.68 1021.68 1021.73 1021.84 1022.00 1022.20 1022.41 1022.61 1022.78 1022.91 1022.99
1013.00 1012.62 1012.22 1011.84 1011.54 1011.34 1011.30 1011.43 1011.75 1012.25 1012.90 1013.67 1014.51 1015.37 1016.21 1016.99 1017.68 1018.29 1018.81 1019.26 1019.66 1020.01 1020.35 1020.67 1020.97 1021.24 1021.48 1021.66 1021.78 1021.85 1021.86 1021.84 1021.81 1021.80 1021.84 1021.93 1022.08 1022.29 1022.54 1022.81 1023.06 1023.27 1023.43 1023.53
1012.89 1012.50 1012.11 1011.78 1011.53 1011.41 1011.46 1011.68 1012.09 1012.67 1013.39 1014.21 1015.08 1015.96 1016.78 1017.52 1018.17 1018.72 1019.18 1019.56 1019.89 1020.20 1020.49 1020.77 1021.05 1021.32 1021.54 1021.73 1021.86 1021.93 1021.95 1021.95 1021.94 1021.95 1022.00 1022.12 1022.30 1022.54 1022.82 1023.12 1023.41 1023.66 1023.85 1023.97
1012.72 1012.31 1011.95 1011.67 1011.51 1011.49 1011.65 1011.98 1012.49 1013.15 1013.92 1014.78 1015.65 1016.51 1017.30 1018.01 1018.60 1019.10 1019.51 1019.84 1020.13 1020.40 1020.67 1020.94 1021.20 1021.46 1021.69 1021.87 1022.01 1022.09 1022.13 1022.14 1022.14 1022.16 1022.23 1022.36 1022.55 1022.80 1023.10 1023.41 1023.71 1023.97 1024.18 1024.32
1012.49 1012.06 1011.72 1011.50 1011.44 1011.54 1011.81 1012.25 1012.85 1013.58 1014.40 1015.27 1016.15 1016.98 1017.74 1018.40 1018.96 1019.42 1019.79 1020.11 1020.38 1020.64 1020.90 1021.16 1021.43 1021.68 1021.91 1022.10 1022.25 1022.35 1022.40 1022.43 1022.45 1022.49 1022.57 1022.70 1022.88 1023.13 1023.41 1023.70 1023.99 1024.25 1024.46 1024.61
1012.17 1011.73 1011.42 1011.28 1011.31 1011.53 1011.92 1012.47 1013.15 1013.94 1014.79 1015.67 1016.53 1017.34 1018.07 1018.70 1019.23 1019.67 1020.04 1020.35 1020.63 1020.90 1021.16 1021.43 1021.70 1021.96 1022.19 1022.40 1022.56 1022.67 1022.75 1022.81 1022.86 1022.91 1023.00 1023.13 1023.31 1023.53 1023.78 1024.05 1024.30 1024.54 1024.73 1024.87
1011.79 1011.35 1011.09 1011.03 1011.16 1011.49 1011.99 1012.63 1013.39 1014.22 1015.09 1015.97 1016.81 1017.59 1018.30 1018.91 1019.43 1019.87 1020.25 1020.58 1020.88 1021.16 1021.43 1021.71 1021.99 1022.25 1022.49 1022.71 1022.89 1023.03 1023.15 1023.24 1023.32 1023.41 1023.52 1023.65 1023.82 1024.01 1024.22 1024.44 1024.65 1024.84 1025.00 1025.12
1011.35 1010.96 1010.77 1010.80 1011.04 1011.48 1012.07 1012.79 1013.60 1014.46 1015.33 1016.20 1017.02 1017.77 1018.45 1019.05 1019.57 1020.03 1020.42 1020.77 1021.09 1021.40 1021.69 1021.98 1022.26 1022.52 1022.77 1022.99 1023.19 1023.37 1023.52 1023.65 1023.78 1023.91 1024.04 1024.19 1024.35 1024.52 1024.69 1024.86 1025.01 1025.15 1025.27 1025.35
1010.89 1010.58 1010.49 1010.64 1010.99 1011.53 1012.21 1012.98 1013.83 1014.69 1015.56 1016.39 1017.18 1017.90 1018.56 1019.15 1019.67 1020.14 1020.55 1020.93 1021.28 1021.60 1021.91 1022.20 1022.47 1022.73 1022.98 1023.20 1023.42 1023.61 1023.80 1023.98 1024.15 1024.32 1024.49 1024.66 1024.82 1024.98 1025.12 1025.25 1025.35 1025.44 1025.51 1025.56
1010.42 1010.23 1010.28 1010.56 1011.03 1011.67 1012.42 1013.24 1014.10 1014.96 1015.79 1016.59 1017.33 1018.01 1018.64 1019.21 1019.74 1020.21 1020.65 1021.05 1021.42 1021.75 1022.06 1022.35 1022.61 1022.86 1023.09 1023.31 1023.53 1023.74 1023.96 1024.17 1024.39 1024.60 1024.80 1025.00 1025.17 1025.32 1025.45 1025.55 1025.62 1025.67 1025.70 1025.72
1009.95 1009.92 1010.13 1010.55 1011.15 1011.88 1012.70 1013.55 1014.41 1015.25 1016.04 1016.79 1017.47 1018.11 1018.71 1019.26 1019.78 1020.26 1020.71 1021.13 1021.51 1021.85 1022.16 1022.43 1022.68 1022.90 1023.11 1023.31 1023.52 1023.73 1023.96 1024.19 1024.44 1024.68 1024.92 1025.14 1025.34 1025.50 1025.62 1025.71 1025.76 1025.79 1025.80 1025.80
1009.47 1009.62 1009.99 1010.57 1011.29 1012.11 1012.99 1013.86 1014.72 1015.53 1016.28 1016.97 1017.60 1018.19 1018.75 1019.28 1019.79 1020.27 1020.74 1021.16 1021.55 1021.90 1022.20 1022.46 1022.68 1022.87 1023.05 1023.22 1023.40 1023.59 1023.81 1024.05 1024.31 1024.57 1024.83 1025.07 1025.29 1025.47 1025.60 1025.70 1025.76 1025.79 1025.79 1025.79
1008.96 1009.29 1009.83 1010.55 1011.38 1012.29 1013.21 1014.11 1014.96 1015.74 1016.45 1017.09 1017.67 1018.22 1018.75 1019.26 1019.76 1020.24 1020.71 1021.15 1021.55 1021.90 1022.20 1022.44 1022.63 1022.79 1022.93 1023.06 1023.20 1023.36 1023.55 1023.77 1024.02 1024.28 1024.55 1024.81 1025.04 1025.24 1025.40 1025.52 1025.60 1025.65 1025.67 1025.68
1008.40 1008.89 1009.58 1010.42 1011.36 1012.34 1013.31 1014.22 1015.07 1015.82 1016.50 1017.10 1017.65 1018.17 1018.67 1019.17 1019.66 1020.16 1020.64 1021.09 1021.50 1021.85 1022.15 1022.38 1022.55 1022.67 1022.77 1022.86 1022.95 1023.06 1023.21 1023.40 1023.62 1023.86 1024.12 1024.39 1024.63 1024.86 1025.04 1025.19 1025.31 1025.39 1025.45 1025.48
1007.79 1008.41 1009.22 1010.16 1011.17 1012.21 1013.21 1014.14 1014.99 1015.74 1016.39 1016.98 1017.51 1018.01 1018.50 1018.99 1019.49 1020.00 1020.49 1020.96 1021.38 1021.75 1022.05 1022.28 1022.43 1022.54 1022.60 1022.65 1022.69 1022.76 1022.85 1022.99 1023.16 1023.38 1023.62 1023.87 1024.12 1024.36 1024.58 1024.76 1024.92 1025.04 1025.14 1025.21
1007.15 1007.85 1008.73 1009.73 1010.80 1011.87 1012.89 1013.84 1014.69 1015.45 1016.11 1016.69 1017.22 1017.73 1018.23 1018.73 1019.24 1019.76 1020.27 1020.76 1021.20 1021.58 1021.90 1022.13 1022.29 1022.38 1022.43 1022.44 1022.44 1022.46 1022.50 1022.59 1022.72 1022.89 1023.09 1023.33 1023.57 1023.82 1024.06 1024.28 1024.47 1024.63 1024.76 1024.87
1006.51 1007.25 1008.16 1009.18 1010.26 1011.35 1012.39 1013.35 1014.21 1014.98 1015.66 1016.26 1016.82 1017.34 1017.86 1018.38 1018.91 1019.45 1019.98 1020.48 1020.95 1021.35 1021.68 1021.93 1022.10 1022.20 1022.24 1022.23 1022.21 1022.19 1022.20 1022.23 1022.31 1022.43 1022.60 1022.81 1023.04 1023.28 1023.53 1023.77 1023.99 1024.18 1024.35 1024.48
1005.91 1006.65 1007.55 1008.56 1009.63 1010.70 1011.74 1012.71 1013.59 1014.39 1015.09 1015.73 1016.32 1016.88 1017.42 1017.97 1018.52 1019.07 1019.61 1020.14 1020.62 1021.04 1021.39 1021.66 1021.85 1021.97 1022.02 1022.02 1021.99 1021.95 1021.93 1021.92 1021.96 1022.04 1022.17 1022.35 1022.55 1022.78 1023.02 1023.27 1023.50 1023.71 1023.89 1024.04
1005.43 1006.13 1006.98 1007.94 1008.97 1010.01 1011.03 1012.00 1012.90 1013.73 1014.47 1015.15 1015.78 1016.38 1016.95 1017.52 1018.09 1018.65 1019.20 1019.73 1020.22 1020.65 1021.02 1021.32 1021.54 1021.68 1021.76 1021.77 1021.76 1021.72 1021.68 1021.66 1021.67 1021.71 1021.80 1021.94 1022.11 1022.32 1022.55 1022.78 1023.01 1023.23 1023.41 1023.57
1005.10 1005.72 1006.49 1007.38 1008.34 1009.34 1010.33 1011.30 1012.21 1013.06 1013.85 1014.57 1015.24 1015.88 1016.48 1017.07 1017.64 1018.21 1018.75 1019.27 1019.76 1020.20 1020.58 1020.90 1021.14 1021.32 1021.43 1021.48 1021.49 1021.47 1021.43 1021.41 1021.40 1021.42 1021.48 1021.58 1021.72 1021.89 1022.09 1022.30 1022.52 1022.72 1022.90 1023.05
1004.94 1005.46 1006.13 1006.92 1007.80 1008.73 1009.68 1010.63 1011.56 1012.43 1013.26 1014.02 1014.74 1015.40 1016.03 1016.63 1017.20 1017.75 1018.28 1018.78 1019.25 1019.68 1020.06 1020.39 1020.66 1020.87 1021.02 1021.11 1021.16 1021.17 1021.16 1021.14 1021.13 1021.13 1021.16 1021.23 1021.34 1021.47 1021.64 1021.82 1022.01 1022.19 1022.35 1022.48
1004.92 1005.33 1005.88 1006.56 1007.34 1008.20 1009.11 1010.04 1010.96 1011.86 1012.71 1013.52 1014.26 1014.96 1015.60 1016.19 1016.75 1017.28 1017.77 1018.24 1018.69 1019.10 1019.48 1019.81 1020.11 1020.35 1020.54 1020.67 1020.76 1020.81 1020.83 1020.82 1020.81 1020.81 1020.83 1020.86 1020.93 1021.03 1021.15 1021.30 1021.45 1021.61 1021.75 1021.87
1004.99 1005.28 1005.71 1006.27 1006.96 1007.74 1008.60 1009.50 1010.41 1011.32 1012.20 1013.03 1013.80 1014.51 1015.16 1015.75 1016.28 1016.78 1017.24 1017.67 1018.08 1018.47 1018.83 1019.17 1019.47 1019.74 1019.97 1020.15 1020.28 1020.36 1020.41 1020.43 1020.43 1020.43 1020.42 1020.43 1020.47 1020.53 1020.61 1020.72 1020.84 1020.97 1021.09 1021.19
1005.07 1005.24 1005.55 1006.01 1006.60 1007.31 1008.11 1008.98 1009.88 1010.79 1011.68 1012.53 1013.32 1014.03 1014.68 1015.26 1015.77 1016.23 1016.66 1017.05 1017.42 1017.78 1018.13 1018.46 1018.78 1019.07 1019.32 1019.54 1019.71 1019.83 1019.91 1019.94 1019.95 1019.94 1019.93 1019.92 1019.92 1019.95 1019.99 1020.07 1020.16 1020.26 1020.36 1020.45
Thickness
5667 5674 5674 5672 5674 5674 5665 5658 5647 5647 5643 5639 5633 5626 5617 5609 5601 5594 5587 5581 5575 5569 5564 5560 5557 5554 5553 5551 5551 5550 5550 5548 5548 5548 5548 5549 5550 5550 5550 5550 5550 5550 5551 5551
5661 5672 5672 5670 5675 5675 5671 5665 5656 5648 5641 5642 5631 5621 5612 5604 5597 5589 5582 5575 5568 5562 5557 5553 5550 5547 5545 5543 5541 5541 5541 5540 5539 5539 5539 5539 5539 5539 5539 5539 5539 5539 5539 5540
5644 5659 5662 5655 5667 5669 5667 5665 5657 5645 5640 5633 5623 5616 5608 5601 5594 5585 5576 5569 5562 5556 5551 5546 5543 5540 5537 5535 5534 5533 5533 5532 5532 5531 5531 5531 5531 5529 5529 5528 5528 5528 5528 5528
5636 5643 5638 5655 5675 5673 5664 5659 5659 5650 5641 5633 5623 5611 5603 5596 5588 5579 5571 5563 5556 5550 5544 5540 5536 5533 5531 5529 5528 5527 5526 5526 5525 5524 5523 5523 5522 5521 5520 5520 5519 5519 5518 5519
5629 5630 5639 5658 5669 5667 5657 5646 5650 5642 5634 5623 5613 5602 5591 5587 5581 5573 5565 5557 5550 5544 5539 5534 5530 5527 5525 5523 5522 5521 5520 5520 5519 5518 5517 5515 5514 5513 5512 5512 5511 5511 5510 5510
5629 5628 5629 5651 5669 5672 5659 5638 5644 5639 5629 5618 5609 5597 5589 5581 5574 5566 5558 5551 5545 5539 5533 5529 5525 5522 5520 5517 5516 5515 5515 5514 5513 5512 5511 5509 5508 5507 5506 5505 5504 5504 5504 5503
5629 5627 5639 5661 5671 5668 5644 5641 5644 5636 5627 5617 5609 5602 5591 5578 5568 5560 5552 5545 5540 5534 5528 5524 5521 5518 5514 5512 5510 5510 5510 5509 5508 5506 5505 5504 5503 5502 5501 5500 5499 5498 5497 5496
5629 5624 5633 5662 5663 5654 5650 5651 5643 5632 5623 5613 5604 5595 5584 5573 5563 5554 5547 5540 5534 5528 5523 5520 5517 5514 5510 5508 5507 5507 5506 5504 5503 5502 5502 5500 5499 5497 5497 5495 5493 5492 5491 5490
5632 5633 5648 5657 5657 5657 5654 5644 5636 5626 5617 5609 5599 5588 5577 5567 5557 5549 5543 5536 5530 5525 5520 5516 5513 5511 5507 5505 5505 5503 5501 5500 5499 5498 5497 5496 5495 5493 5492 5490 5488 5486 5485 5483
5635 5642 5647 5649 5650 5650 5648 5641 5633 5625 5615 5606 5595 5584 5572 5562 5553 5545 5539 5533 5527 5522 5517 5513 5511 5509 5506 5504 5503 5501 5498 5496 5495 5493 5492 5491 5490 5490 5488 5486 5484 5483 5481 5479
5632 5638 5641 5642 5642 5640 5638 5633 5626 5617 5610 5601 5591 5579 5569 5559 5551 5543 5537 5531 5525 5520 5516 5512 5510 5507 5505 5503 5501 5498 5496 5494 5492 5490 5488 5486 5485 5484 5484 5484 5484 5482 5480 5478
5633 5639 5637 5635 5637 5636 5631 5624 5618 5611 5602 5594 5588 5577 5567 5558 5550 5543 5536 5530 5524 5520 5516 5513 5510 5507 5505 5503 5501 5497 5494 5492 5490 5488 5486 5484 5483 5481 5482 5482 5483 5483 5481 5479
5646 5646 5642 5639 5635 5632 5626 5620 5614 5607 5599 5590 5582 5575 5566 5556 5548 5542 5536 5530 5525 5520 5517 5513 5510 5507 5506 5504 5502 5498 5495 5493 5491 5489 5486 5484 5482 5481 5479 5479 5480 5480 5479 5478
5649 5646 5637 5634 5630 5628 5623 5616 5609 5601 5594 5587 5579 5571 5563 5555 5548 5542 5536 5531 5527 5522 5518 5514 5511 5509 5508 5506 5503 5500 5497 5496 5493 5491 5489 5487 5485 5483 5481 5479 5478 5477 5478 5477
5647 5647 5640 5634 5629 5624 5619 5612 5604 5596 5589 5582 5576 5570 5563 5555 5549 5543 5538 5534 5529 5524 5520 5517 5514 5511 5511 5508 5505 5503 5500 5498 5496 5494 5492 5491 5489 5486 5484 5482 5480 5478 5478 5477
5643 5642 5638 5632 5626 5620 5615 5609 5602 5594 5589 5582 5575 5569 5564 5557 5551 5546 5541 5537 5531 5526 5523 5520 5517 5515 5514 5511 5508 5506 5504 5503 5501 5499 5497 5494 5493 5490 5488 5486 5483 5481 5480 5479
5639 5634 5632 5629 5625 5619 5615 5610 5604 5597 5590 5583 5577 5571 5565 5559 5553 5548 5544 5540 5535 5531 5527 5524 5521 5520 5518 5515 5512 5509 5508 5507 5507 5503 5501 5499 5497 5496 5493 5490 5488 5486 5485 5485
5646 5643 5639 5634 5628 5621 5615 5611 5605 5599 5592 5586 5580 5574 5568 5562 5556 5552 5547 5543 5538 5534 5531 5529 5527 5524 5522 5519 5517 5515 5512 5511 5509 5507 5506 5504 5503 5501 5499 5496 5494 5493 5491 5490
5646 5642 5638 5634 5629 5623 5618 5613 5607 5601 5595 5589 5583 5576 5571 5566 5561 5556 5551 5546 5542 5538 5535 5534 5532 5529 5526 5525 5523 5520 5518 5516 5515 5513 5512 5511 5509 5506 5504 5502 5500 5498 5496 5494
5648 5644 5640 5635 5631 5625 5620 5616 5610 5604 5598 5592 5585 5579 5573 5569 5565 5560 5555 5551 5548 5545 5543 5540 5537 5534 5532 5530 5529 5526 5524 5522 5521 5519 5518 5516 5514 5512 5510 5508 5506 5504 5503 5500
5649 5646 5642 5637 5632 5628 5624 5619 5613 5607 5602 5596 5589 5584 5578 5573 5570 5565 5559 5555 5554 5552 5549 5546 5543 5540 5538 5536 5535 5532 5530 5528 5527 5525 5524 5522 5520 5518 5517 5515 5513 5511 5509 5507
5651 5648 5645 5641 5635 5630 5627 5622 5616 5611 5605 5599 5594 5589 5583 5578 5574 5570 5567 5563 5561 5559 5555 5552 5549 5547 5545 5543 5541 5539 5537 5536 5534 5532 5531 5529 5527 5525 5523 5521 5519 5518 5516 5514
5652 5650 5646 5643 5638 5634 5629 5624 5620 5615 5609 5604 5599 5594 5589 5585 5581 5576 5571 5570 5568 5565 5561 5558 5556 5554 5552 5549 5547 5545 5544 5544 5542 5541 5539 5537 5535 5533 5531 5529 5527 5525 5523 5520
5650 5649 5647 5644 5640 5634 5629 5625 5622 5619 5614 5610 5605 5601 5596 5590 5586 5584 5582 5578 5575 5571 5568 5565 5563 5561 5558 5555 5553 5552 5551 5550 5549 5548 5547 5544 5542 5540 5538 5536 5534 5532 5530 5528
5650 5649 5647 5643 5639 5636 5632 5628 5624 5620 5616 5613 5609 5606 5603 5599 5595 5591 5588 5585 5581 5577 5574 5572 5569 5566 5563 5561 5559 5558 5557 5557 5556 5555 5553 5551 5549 5547 5545 5543 5541 5539 5537 5535
5649 5649 5648 5647 5644 5640 5636 5632 5627 5624 5620 5616 5613 5611 5608 5605 5602 5598 5595 5592 5588 5584 5581 5578 5575 5572 5569 5567 5566 5565 5564 5564 5562 5561 5559 5558 5556 5554 5552 5550 5549 5546 5544 5542
5646 5646 5644 5642 5641 5641 5638 5635 5631 5628 5626 5622 5619 5616 5614 5611 5608 5604 5601 5597 5594 5590 5587 5584 5581 5579 5576 5574 5573 5572 5571 5569 5568 5567 5566 5564 5563 5561 5559 5558 5556 5554 5551 5549